Location: *
(51.8167°N, 12.5000°E)
Time: 08:58:18
(UTC+00:00)

Cosmos 1833 - Pass Details

Date: 16 September 2019
Orbit: 836 x 863 km, 70.9° (Epoch: 13 October)

Event Time Altitude Azimuth Distance (km) Brightness Sun altitude
Rises 17:55:29 0° 198° (SSW) 3,412 7.4 -5.8°
Reaches altitude 10° 17:57:57 10° 196° (SSW) 2,476 6.7 -6.1°
Maximum altitude 18:03:34 66° 115° (ESE) 923 4.2 -7.0°
Drops below altitude 10° 18:09:12 10° 35° (NE) 2,474 6.4 -7.8°
Sets 18:11:39 0° 33° (NNE) 3,409 7.2 -8.2°
